UAL1591 KLAS-KLAX

Flight info

Callsign UAL1591
Flight time N/A
Altitude 28000
Route RADYR2 BLAQQ SHTNR ANJLL4
Aircraft A319/M-SDE3FGHIRWY/LB1

Departure

Time N/A
Airport Harry Reid International Airport (KLAS)

Arrival

Time 2026-05-04 17:39
Airport Los Angeles International Airport (KLAX)
Time Latitude Longitude Altitude Speed Heading
2026-05-04 17:25 34.11166 -117.34702 16696 ft 275 kts 248°
2026-05-04 17:26 34.09976 -117.39101 15895 ft 277 kts 249°
2026-05-04 17:26 34.08313 -117.45802 14717 ft 279 kts 250°
2026-05-04 17:27 34.07194 -117.50310 13933 ft 282 kts 250°
2026-05-04 17:27 34.06024 -117.54922 13191 ft 290 kts 250°
2026-05-04 17:28 34.04838 -117.59564 12466 ft 289 kts 250°
2026-05-04 17:29 34.03072 -117.66456 11401 ft 287 kts 250°
2026-05-04 17:29 34.01845 -117.73546 10335 ft 289 kts 260°
2026-05-04 17:30 34.01157 -117.80693 9223 ft 285 kts 260°
2026-05-04 17:31 34.00693 -117.85398 8517 ft 281 kts 261°
2026-05-04 17:31 34.00010 -117.92339 7494 ft 275 kts 261°
2026-05-04 17:32 33.99562 -117.96887 6818 ft 272 kts 261°
2026-05-04 17:33 33.98895 -118.03650 5785 ft 271 kts 262°
2026-05-04 17:33 33.98669 -118.05906 5453 ft 272 kts 262°
2026-05-04 17:34 33.98018 -118.12385 4470 ft 255 kts 263°
2026-05-04 17:34 33.97810 -118.14446 4314 ft 243 kts 263°
2026-05-04 17:35 33.97221 -118.20320 3429 ft 228 kts 263°
2026-05-04 17:35 33.96854 -118.23978 2820 ft 211 kts 263°
2026-05-04 17:35 33.96682 -118.25687 2551 ft 200 kts 262°
2026-05-04 17:36 33.96520 -118.27293 2288 ft 188 kts 262°
2026-05-04 17:36 33.96367 -118.28800 2057 ft 176 kts 262°
2026-05-04 17:36 33.96224 -118.30218 1817 ft 165 kts 262°
2026-05-04 17:36 33.96092 -118.31519 1602 ft 150 kts 262°
2026-05-04 17:37 33.95975 -118.32685 1407 ft 132 kts 262°
2026-05-04 17:37 33.95864 -118.33767 1226 ft 128 kts 263°
2026-05-04 17:37 33.95766 -118.34820 1074 ft 124 kts 265°
2026-05-04 17:37 33.95657 -118.35852 914 ft 124 kts 261°
2026-05-04 17:38 33.95546 -118.36889 735 ft 124 kts 262°
2026-05-04 17:38 33.95430 -118.37936 559 ft 126 kts 261°
2026-05-04 17:38 33.95323 -118.38963 379 ft 122 kts 261°
2026-05-04 17:38 33.95230 -118.39969 202 ft 120 kts 262°
2026-05-04 17:39 33.95050 -118.41761 108 ft 82 kts 264°
2026-05-04 17:39 33.94993 -118.42327 108 ft 44 kts 261°
2026-05-04 17:39 33.94921 -118.42577 106 ft 27 kts 238°
2026-05-04 17:40 33.94849 -118.42680 104 ft 2 kts 225°
2026-05-04 17:41 33.94848 -118.42681 104 ft 1 kts 224°
2026-05-04 17:42 33.94832 -118.42699 105 ft 6 kts 222°
2026-05-04 17:42 33.94777 -118.42750 108 ft 13 kts 211°
2026-05-04 17:42 33.94662 -118.42780 102 ft 22 kts 177°
2026-05-04 17:42 33.94483 -118.42753 96 ft 28 kts 172°
2026-05-04 17:43 33.94283 -118.42724 95 ft 31 kts 173°
2026-05-04 17:43 33.94060 -118.42691 95 ft 33 kts 173°
2026-05-04 17:43 33.93837 -118.42658 95 ft 24 kts 173°
2026-05-04 17:43 33.93724 -118.42638 95 ft 13 kts 159°
2026-05-04 17:44 33.93703 -118.42535 95 ft 15 kts 82°
2026-05-04 17:44 33.93716 -118.42412 96 ft 15 kts 83°
2026-05-04 17:44 33.93729 -118.42287 99 ft 15 kts 83°
2026-05-04 17:44 33.93741 -118.42159 99 ft 16 kts 82°
2026-05-04 17:45 33.93755 -118.42024 99 ft 17 kts 83°
2026-05-04 17:45 33.93768 -118.41880 101 ft 18 kts 82°
2026-05-04 17:45 33.93785 -118.41726 99 ft 19 kts 83°
2026-05-04 17:45 33.93801 -118.41561 99 ft 21 kts 84°
2026-05-04 17:46 33.93818 -118.41383 98 ft 22 kts 84°
2026-05-04 17:46 33.93837 -118.41207 98 ft 24 kts 81°
2026-05-04 17:46 33.93860 -118.41001 98 ft 26 kts 83°
2026-05-04 17:46 33.93883 -118.40774 98 ft 29 kts 83°
2026-05-04 17:47 33.93907 -118.40525 98 ft 31 kts 84°
2026-05-04 17:47 33.93935 -118.40265 98 ft 31 kts 82°
2026-05-04 17:47 33.93952 -118.40056 99 ft 25 kts 83°
2026-05-04 17:47 33.93968 -118.39912 98 ft 16 kts 82°
2026-05-04 17:48 33.94019 -118.39825 97 ft 14 kts
2026-05-04 17:48 33.94120 -118.39829 95 ft 12 kts 354°
2026-05-04 17:48 33.94188 -118.39837 95 ft 6 kts 10°
2026-05-04 17:48 33.94204 -118.39792 96 ft 2 kts 81°
2026-05-04 17:49 33.94205 -118.39778 95 ft 0 kts 83°